Regional Weather Roundup
Issued by NWS

Home | Current Version | Previous Version | Graphics & Text | Print | Product List | Glossary Off
Versions: 1 2 3 4 5 6 7 8 9 10 11 12 13 14 15 16 17 18 19 20 21 22 23 24 25 26 27 28 29 30 31 32 33 34 35 36 37 38 39 40 41 42 43 44 45 46 47 48 49 50

000
ASUS43 KMKX 222200
RWRWI

WISCONSIN REGIONAL WEATHER ROUNDUP
NATIONAL WEATHER SERVICE MILWAUKEE/SULLIVAN WI
500 PM CDT TUE JUL 22 2014

NOTE: "FAIR" INDICATES FEW OR NO CLOUDS BELOW 12,000 FEET WITH NO
SIGNIFICANT WEATHER AND/OR OBSTRUCTIONS TO VISIBILITY.

WIZ001-002-006>008-014>016-023>028-222300-
NORTHWEST WISCONSIN

CITY           SKY/WX    TMP DP  RH WIND       PRES   REMARKS
SUPERIOR ARPT  PTSUNNY   78  59  51 N9        30.02R
ASHLAND        CLOUDY    74  62  66 NE10      30.04R
HAYWARD        PTSUNNY   79  59  50 N9        30.04R HX  80
SIREN          MOSUNNY   79  59  49 N9        30.04R HX  80
RICE LAKE      MOSUNNY   81  60  49 NW9G18    30.04S HX  81
LADYSMITH      PTSUNNY   78  63  59 N10G16    30.04R HX  80
EAU CLAIRE     NOT AVBL
MENOMONIE      PTCLDY    79  61  53 NW8       30.03R HX  80
NEW RICHMOND   MOSUNNY   80  61  52 NW9       30.04S HX  81
OSCEOLA        MOSUNNY   80  63  55 NW12      30.06S HX  81
$$

WIZ003>005-009-010-017-018-222300-
NORTH CENTRAL WISCONSIN

CITY           SKY/WX    TMP DP  RH WIND       PRES   REMARKS
WOODRUFF       LGT RAIN  72  64  77 NW10G22   30.02R
RHINELANDER    CLOUDY    71  63  75 NW9       30.03R
EAGLE RIVER    CLOUDY    71  62  73 N13       30.01R
LAND O LAKES   CLOUDY    69  62  78 N12G17    30.02R
PHILLIPS       CLOUDY    73  62  68 N13G18    30.03R
TOMAHAWK       CLOUDY    74  63  67 NW7       30.03R
MEDFORD        CLOUDY    74  64  69 NW9       30.02R
MERRILL        PTSUNNY   76  65  69 N13G18    30.00R
$$

WIZ029-030-035-036-043>047-222300-
CENTRAL WISCONSIN

CITY           SKY/WX    TMP DP  RH WIND       PRES   REMARKS
WAUSAU         PTSUNNY   82  65  56 N16G24    29.96R HX  84
MOSINEE        NOT AVBL
MARSHFIELD     MOSUNNY   81  65  58 NW18      29.99R HX  83
STEVENS POINT  MOSUNNY   82  64  55 NW10G20   29.96S HX  84
WAUPACA        SUNNY     91  62  38 NW15      29.92R HX  91
WAUTOMA        NOT AVBL
WISC RAPIDS    MOSUNNY   87  66  49 NW17      29.98R HX  89
CAMP DOUGLAS   NOT AVBL
$$

WIZ011>013-019>022-031-037>040-048>050-222300-
NORTHEAST WISCONSIN

CITY           SKY/WX    TMP DP  RH WIND       PRES   REMARKS
ANTIGO         PTSUNNY   78  65  64 NW15G22   29.98R HX  80
STURGEON BAY   SUNNY     88  66  48 NW13G18   29.88R HX  90
GREEN BAY      SUNNY     90  67  46 NW15      29.89R HX  93
MANITOWOC      NOT AVBL
APPLETON       MOSUNNY   90  64  43 NW14      29.91R HX  91
CLINTONVILLE   SUNNY     88  61  40 NW13      29.91R HX  88
OSHKOSH        PTSUNNY   88  71  57 NW17G24   29.90R HX  94
$$

WIZ032>034-041-042-053>061-222300-
SOUTHWEST WISCONSIN

CITY           SKY/WX    TMP DP  RH WIND       PRES   REMARKS
LA CROSSE      SUNNY     88  66  48 NW15      29.97S HX  90
SPARTA         SUNNY     86  63  46 NW12G18   29.98S HX  86
VIROQUA        FAIR      84  69  61 NW12G21   30.00S HX  87
BOSCOBEL       MOSUNNY   94  73  50 NW13G20   29.93R HX 103
PRAIRIE DU CHI SUNNY     91  67  45 NW14      29.93S HX  94
PLATTEVILLE    FAIR      90  75  59 W9        29.96R HX 100
$$

WIZ056-057-062-063-064-067-068-222300-
SOUTH CENTRAL WISCONSIN

CITY           SKY/WX    TMP DP  RH WIND       PRES   REMARKS
BARABOO/DELLS  PTSUNNY   91  68  47 NW12G18   29.93S HX  94
LONE ROCK      NOT AVBL
WATERTOWN      PTSUNNY   88  78  72 SW7       29.90F HX 101
MADISON        MOSUNNY   92  73  53 W9        29.91F HX 100
MIDDLETON      FAIR      92  71  49 W9        29.92F HX  98
MONROE         MOSUNNY   88  77  70 W13G18    29.94F HX 100
JANESVILLE     MOSUNNY   90  75  62 W14       29.92F HX 100
$$

WIZ051-052-058>065-066-070>072-222300-
SOUTHEAST WISCONSIN

CITY           SKY/WX    TMP DP  RH WIND       PRES   REMARKS
MILWAUKEE      PTSUNNY   88  74  63 W13G22    29.90F HX  96
WAUKESHA       PTSUNNY   84  73  70 SW8       29.93F HX  91
MILWAUKEE/TIMM MOSUNNY   88  73  62 MISG      29.91S HX  96
RACINE         MOSUNNY   87  75  67 SW10G21   29.93S HX  96
BURLINGTON     MOSUNNY   84  74  71 SW10      29.93F HX  91
KENOSHA        PTSUNNY   86  76  71 W15G21    29.93F HX  96
FOND DU LAC    MOSUNNY   91  73  55 W10G18    29.89F HX  99
SHEBOYGAN      SUNNY     90  74  59 W12G17    29.88F HX  99
WEST BEND      PTSUNNY   86  72  62 SW10      29.90F HX  92
JUNEAU         MOSUNNY   89  69  52 W9        29.92S HX  93
$$

LSZ147-162-222300-
LAKE SUPERIOR

STATION/POSITION TIME  TEMP    WIND        PRES    WAVE
                       AIR SEA DIR/SP/G            HT/PER
                 (UTC) (F)     (DEG/KT/KT) (MB)    (FT/S)
W MID LAKE BUOY  2050   50 40  290/ 10/ 10 1015.3R   2/ 5
PORT WING        2100   69     280/  2/  4 1016.6
SAXON HARBOR     2100          300/  2/  6 1016.6R
$$

LMZ867-665-643>646-222300-
LAKE MICHIGAN

STATION/POSITION TIME  TEMP    WIND        PRES    WAVE
                       AIR SEA DIR/SP/G            HT/PER
                 (UTC) (F)     (DEG/KT/KT) (MB)    (FT/S)
N MID LAKE BUOY  2050   63 58  220/ 16/ 19 1009.9R   6/ 6
NORTHPORT PIER   2100   84     280/  6/ 12 1010.5R
KEWAUNEE LAKESHO 2100   56     170/ 10/ 12 1011.8S
SHEBOYGAN LAKESH 2100   75     180/  9/ 12 1011.7S
PORT WASHINGTON  2100          240/  9/ 16 1012.9R
ATWATER BUOY     2100   75     220/ 12     1013.6R
MILWAUKEE LAKESH 2100   86     260/ 14/ 19   N/A
S MID LAKE BUOY  2050   73 68  180/ 16/ 17 1012.7F   2/ 4
KENOSHA   LAKESH 2100   87     230/ 13/ 21   N/A
$$

TC  - TEMPERATURE IN CELSIUS
VSB - VISIBILITY IN STATUTE MILES
WCI - WIND CHILL INDEX
HX  - HEAT INDEX




USA.gov is the U.S. government's official web portal to all federal, state and local government web resources and services.